CW2888 Weather Reports


time (UTC)temp
F
wind
direction
speed
knots
gust
knots
rain 1hr
in
rain 24hr
in
rain mn
in
humidity
%
barometer
mb
20260510190305 55 349 1.7 5.2 0.00 0.00 0.00 55 1014.4
20260510185306 56 39 0.9 6.1 0.00 0.00 0.00 54 1014.4
20260510184805 56 64 1.7 5.2 0.00 0.00 0.00 53 1014.4
20260510184305 56 73 1.7 4.3 0.00 0.00 0.00 52 1014.4
20260510183805 56 61 1.7 4.3 0.00 0.00 0.00 53 1014.4
20260510183305 56 69 2.6 8.7 0.00 0.00 0.00 52 1014.4
20260510182805 56 89 4.3 8.7 0.00 0.00 0.00 52 1014.4
20260510182306 57 78 1.7 7.8 0.00 0.00 0.00 52 1014.4
20260510181804 57 81 3.5 8.7 0.00 0.00 0.00 52 1014.4
20260510181305 56 62 2.6 7.0 0.00 0.00 0.00 53 1014.4
20260510180804 56 46 1.7 5.2 0.00 0.00 0.00 54 1014.4
20260510180305 56 56 1.7 6.1 0.00 0.00 0.00 54 1014.4
20260510175804 56 64 2.6 6.1 0.00 0.00 0.00 53 1014.5
20260510175306 56 53 2.6 5.2 0.00 0.00 0.00 54 1014.6
20260510174805 56 59 2.6 7.0 0.00 0.00 0.00 54 1014.6
20260510174305 56 60 2.6 7.0 0.00 0.00 0.00 54 1014.6
20260510173804 56 53 2.6 8.7 0.00 0.00 0.00 54 1014.6
20260510173305 56 51 4.3 8.7 0.00 0.00 0.00 54 1014.7
20260510172306 56 58 4.3 10.4 0.00 0.00 0.00 54 1014.8
20260510171805 57 34 1.7 5.2 0.00 0.00 0.00 55 1014.8
20260510171305 57 40 2.6 8.7 0.00 0.00 0.00 56 1014.8
20260510170805 56 58 1.7 4.3 0.00 0.00 0.00 55 1014.9
20260510170305 56 61 1.7 8.7 0.00 0.00 0.00 54 1014.9
20260510165306 57 49 2.6 5.2 0.00 0.00 0.00 55 1014.9
20260510164805 57 58 5.2 11.3 0.00 0.00 0.00 54 1014.9
20260510164304 57 82 2.6 7.8 0.00 0.00 0.00 56 1015.0
20260510163805 57 46 2.6 10.4 0.00 0.00 0.00 56 1015.1
20260510163305 57 37 4.3 7.8 0.00 0.00 0.00 55 1015.1
20260510162805 57 50 2.6 12.2 0.00 0.00 0.00 56 1015.1
20260510162306 56 48 2.6 8.7 0.00 0.00 0.00 57 1015.2
20260510161805 56 57 3.5 8.7 0.00 0.00 0.00 57 1015.3
20260510161304 56 36 2.6 8.7 0.00 0.00 0.00 58 1015.4
20260510160304 57 42 2.6 5.2 0.00 0.00 0.00 59 1015.5
20260510155805 56 47 3.5 8.7 0.00 0.00 0.00 58 1015.5
20260510154805 56 74 3.5 11.3 0.00 0.00 0.00 58 1015.6
20260510154305 56 42 1.7 5.2 0.00 0.00 0.00 58 1015.7
20260510153805 56 46 4.3 7.8 0.00 0.00 0.00 60 1015.7
20260510153305 56 20 1.7 10.4 0.00 0.00 0.00 61 1015.7
20260510152805 56 26 2.6 7.0 0.00 0.00 0.00 60 1015.7
20260510152307 56 22 3.5 11.3 0.00 0.00 0.00 59 1015.8
20260510151805 56 49 4.3 11.3 0.00 0.00 0.00 60 1015.9
20260510151305 56 84 2.6 7.0 0.00 0.00 0.00 61 1015.9
20260510150805 56 43 1.7 5.2 0.00 0.00 0.00 62 1016.0
20260510150305 55 65 2.6 6.1 0.00 0.00 0.00 62 1016.1
20260510145805 55 61 2.6 7.8 0.00 0.00 0.00 62 1016.2
20260510145306 55 21 3.5 7.0 0.00 0.00 0.00 62 1016.2
20260510144804 55 43 2.6 7.0 0.00 0.00 0.00 62 1016.3
20260510144304 55 35 2.6 7.0 0.00 0.00 0.00 62 1016.4
20260510143805 55 66 4.3 8.7 0.00 0.00 0.00 63 1016.5
20260510142804 55 32 2.6 7.8 0.00 0.00 0.00 63 1016.6
20260510141804 55 71 4.3 8.7 0.00 0.00 0.00 63 1016.7
20260510141304 55 70 4.3 8.7 0.00 0.00 0.00 64 1016.8
20260510140808 54 42 4.3 7.8 0.00 0.00 0.00 64 1016.9
20260510135804 54 44 3.5 10.4 0.00 0.00 0.00 65 1016.9
20260510135306 54 54 3.5 7.8 0.00 0.00 0.00 65 1016.9
20260510134804 54 44 4.3 7.8 0.00 0.00 0.00 64 1016.9
20260510134305 54 45 5.2 12.2 0.00 0.00 0.00 66 1016.9
20260510133804 54 65 4.3 8.7 0.00 0.00 0.00 66 1016.9
20260510133304 54 66 4.3 8.7 0.00 0.00 0.00 65 1016.9
20260510132805 55 59 4.3 8.7 0.00 0.00 0.00 66 1016.9
20260510131805 54 53 3.5 10.4 0.00 0.00 0.00 66 1016.9
20260510131305 54 69 4.3 11.3 0.00 0.00 0.00 66 1017.0
20260510130804 54 68 5.2 10.4 0.00 0.00 0.00 67 1017.1
20260510130305 54 71 5.2 11.3 0.00 0.00 0.00 67 1017.1
20260510125804 54 50 3.5 10.4 0.00 0.00 0.00 68 1017.1
20260510125308 54 57 3.5 11.3 0.00 0.00 0.00 68 1017.1
20260510124805 54 67 4.3 8.7 0.00 0.00 0.00 68 1017.2
20260510124306 54 64 3.5 10.4 0.00 0.00 0.00 69 1017.3
20260510123805 54 31 3.5 8.7 0.00 0.00 0.00 69 1017.3
20260510123305 54 39 2.6 7.8 0.00 0.00 0.00 69 1017.4
20260510122804 54 81 4.3 8.7 0.00 0.00 0.00 70 1017.3
20260510122306 54 54 4.3 11.3 0.00 0.00 0.00 69 1017.4
20260510121806 54 23 3.5 7.8 0.00 0.00 0.00 70 1017.4
20260510121305 54 74 2.6 7.0 0.00 0.00 0.00 70 1017.5
20260510120805 54 58 4.3 11.3 0.00 0.00 0.00 69 1017.5
20260510120305 54 53 4.3 8.7 0.00 0.00 0.00 69 1017.6
20260510115805 54 48 4.3 8.7 0.00 0.00 0.00 70 1017.5
20260510114805 54 58 5.2 13.0 0.00 0.00 0.00 68 1017.6
20260510114304 54 54 5.2 11.3 0.00 0.00 0.00 68 1017.7
20260510113305 53 15 5.2 13.0 0.00 0.00 0.00 72 1017.9
20260510112805 53 52 4.3 10.4 0.00 0.00 0.00 72 1017.9
20260510112306 53 50 4.3 8.7 0.00 0.00 0.00 72 1018.0
20260510111814 53 55 2.6 11.3 0.00 0.00 0.00 74 1018.0
20260510111307 52 20 5.2 11.3 0.00 0.00 0.00 73 1018.0
20260510110305 53 61 5.2 12.2 0.00 0.00 0.00 73 1018.0
20260510105805 53 29 2.6 11.3 0.00 0.00 0.00 73 1018.1
20260510105306 52 80 4.3 8.7 0.00 0.00 0.00 75 1018.1
20260510104805 52 45 6.1 11.3 0.00 0.00 0.00 74 1018.2
20260510104305 52 48 4.3 11.3 0.00 0.00 0.00 74 1018.3
20260510103805 52 50 4.3 12.2 0.00 0.00 0.00 74 1018.3
20260510103304 52 47 6.1 10.4 0.00 0.00 0.00 74 1018.3
20260510102805 52 31 3.5 11.3 0.00 0.00 0.00 75 1018.3
20260510102306 51 39 5.2 8.7 0.00 0.00 0.00 76 1018.4
20260510101805 51 23 5.2 12.2 0.00 0.00 0.00 76 1018.4
20260510101305 51 68 6.1 11.3 0.00 0.00 0.00 77 1018.4
20260510100805 51 38 4.3 11.3 0.00 0.00 0.00 77 1018.3
20260510095805 51 35 2.6 11.3 0.00 0.00 0.00 78 1018.3
20260510095306 51 34 4.3 8.7 0.00 0.00 0.00 78 1018.4
20260510094805 51 17 5.2 12.2 0.00 0.00 0.00 78 1018.4
20260510094305 51 44 5.2 12.2 0.00 0.00 0.00 77 1018.4
20260510093805 51 27 4.3 10.4 0.00 0.00 0.00 78 1018.4
20260510093305 51 18 3.5 10.4 0.00 0.00 0.00 77 1018.5
20260510092805 51 12 4.3 8.7 0.00 0.00 0.00 77 1018.4
20260510092307 51 28 4.3 12.2 0.00 0.00 0.00 77 1018.4
20260510091805 51 5 5.2 10.4 0.00 0.00 0.00 77 1018.4
20260510090805 51 20 5.2 8.7 0.00 0.00 0.00 77 1018.4
20260510090305 51 35 4.3 14.8 0.00 0.00 0.00 77 1018.4
20260510085804 51 8 4.3 12.2 0.00 0.00 0.00 76 1018.5
20260510085306 52 53 4.3 7.8 0.00 0.00 0.00 76 1018.6
20260510084805 52 28 2.6 8.7 0.00 0.00 0.00 77 1018.6
20260510084305 52 56 2.6 6.1 0.00 0.00 0.00 75 1018.6
20260510083805 52 70 2.6 10.4 0.00 0.00 0.00 75 1018.6
20260510083304 52 65 5.2 11.3 0.00 0.00 0.00 74 1018.5
20260510082804 52 54 4.3 10.4 0.00 0.00 0.00 75 1018.5
20260510082306 52 56 4.3 13.0 0.00 0.00 0.00 75 1018.5
20260510081805 52 65 5.2 13.0 0.00 0.00 0.00 74 1018.5
20260510081305 52 51 5.2 11.3 0.00 0.00 0.00 74 1018.5
20260510080805 52 63 5.2 10.4 0.00 0.00 0.00 75 1018.5
20260510080305 52 25 6.1 12.2 0.00 0.00 0.00 77 1018.5
20260510075805 52 38 4.3 7.8 0.00 0.00 0.00 78 1018.6
20260510075306 52 43 4.3 10.4 0.00 0.00 0.00 78 1018.5
20260510074305 52 53 2.6 7.8 0.00 0.00 0.00 78 1018.5
20260510073305 52 36 4.3 12.2 0.00 0.00 0.00 78 1018.5
20260510072805 52 60 3.5 8.7 0.00 0.00 0.00 78 1018.5
20260510072306 52 44 4.3 13.9 0.00 0.00 0.00 78 1018.5
20260510071804 51 22 5.2 11.3 0.00 0.00 0.00 78 1018.5
20260510071305 51 27 4.3 10.4 0.00 0.00 0.00 78 1018.5
20260510070804 51 34 4.3 12.2 0.00 0.00 0.00 78 1018.4
20260510065805 51 44 2.6 6.1 0.00 0.00 0.00 78 1018.3
20260510064804 51 21 2.6 10.4 0.00 0.00 0.00 78 1018.4
20260510064305 51 43 4.3 11.3 0.00 0.00 0.00 79 1018.4
20260510063805 50 22 3.5 7.8 0.00 0.00 0.00 80 1018.4
20260510063305 50 59 2.6 7.8 0.00 0.00 0.00 81 1018.3
20260510062805 49 68 4.3 10.4 0.00 0.00 0.00 82 1018.3
20260510061804 49 41 2.6 8.7 0.00 0.00 0.00 83 1018.3
20260510061305 49 53 3.5 7.0 0.00 0.00 0.00 84 1018.4
20260510060805 49 52 2.6 7.0 0.00 0.00 0.00 84 1018.4
20260510060304 49 58 1.7 5.2 0.00 0.00 0.00 84 1018.4
20260510055804 48 67 2.6 8.7 0.00 0.00 0.00 84 1018.3
20260510055306 48 66 1.7 7.0 0.00 0.00 0.00 84 1018.3
20260510054805 48 52 1.7 5.2 0.00 0.00 0.00 84 1018.2
20260510053805 48 24 2.6 7.0 0.00 0.00 0.00 84 1018.3
20260510052804 47 355 1.7 4.3 0.00 0.00 0.00 84 1018.3
20260510051304 47 36 1.7 5.2 0.00 0.00 0.00 84 1018.3
20260510050804 47 37 2.6 5.2 0.00 0.00 0.00 84 1018.3
20260510050305 47 34 2.6 6.1 0.00 0.00 0.00 84 1018.3
20260510045804 47 37 2.6 6.1 0.00 0.00 0.00 83 1018.2
20260510045306 47 33 1.7 7.0 0.00 0.00 0.00 84 1018.2
20260510044805 47 49 2.6 7.8 0.00 0.00 0.00 84 1018.3
20260510044305 47 53 2.6 7.0 0.00 0.00 0.00 83 1018.3
20260510043805 47 35 2.6 5.2 0.00 0.00 0.00 83 1018.4
20260510043305 47 48 1.7 7.0 0.00 0.00 0.00 83 1018.4
20260510042804 47 62 2.6 5.2 0.00 0.00 0.00 83 1018.3
20260510041805 47 36 2.6 6.1 0.00 0.00 0.00 83 1018.5
20260510041304 47 48 2.6 5.2 0.00 0.00 0.00 83 1018.5
20260510040804 47 42 1.7 6.1 0.00 0.00 0.00 82 1018.5
20260510035804 47 22 1.7 5.2 0.00 0.00 0.00 82 1018.6
20260510035306 47 36 2.6 5.2 0.00 0.00 0.00 82 1018.6
20260510034804 47 47 0.9 5.2 0.00 0.00 0.00 82 1018.6
20260510034304 47 42 2.6 7.8 0.00 0.00 0.00 82 1018.6
20260510033804 47 47 2.6 6.1 0.00 0.00 0.00 82 1018.6
20260510032805 48 38 4.3 11.3 0.00 0.00 0.00 82 1018.7
20260510032306 48 28 3.5 8.7 0.00 0.00 0.00 82 1018.7
20260510031804 48 26 2.6 7.0 0.00 0.00 0.00 82 1018.7
20260510031305 48 59 2.6 10.4 0.00 0.00 0.00 82 1018.7
20260510030804 48 26 4.3 8.7 0.00 0.00 0.00 82 1018.8
20260510030304 48 45 2.6 7.8 0.00 0.00 0.00 82 1018.7
20260510025804 48 44 4.3 7.8 0.00 0.00 0.00 82 1018.6
20260510025306 48 50 2.6 7.0 0.00 0.00 0.00 82 1018.6
20260510024804 48 33 2.6 7.8 0.00 0.00 0.00 82 1018.6
20260510024305 48 29 3.5 5.2 0.00 0.00 0.00 82 1018.6
20260510023804 48 42 4.3 8.7 0.00 0.00 0.00 82 1018.6
20260510023304 48 19 1.7 5.2 0.00 0.00 0.00 82 1018.7
20260510022805 49 30 3.5 10.4 0.00 0.00 0.00 82 1018.7
20260510022306 49 55 4.3 10.4 0.00 0.00 0.00 82 1018.7
20260510021304 49 36 3.5 11.3 0.00 0.00 0.00 82 1018.6
20260510020305 49 12 4.3 11.3 0.00 0.00 0.00 82 1018.6
20260510015804 49 38 2.6 10.4 0.00 0.00 0.00 82 1018.5
20260510015306 49 32 4.3 10.4 0.00 0.00 0.00 82 1018.6
20260510014806 49 37 3.5 8.7 0.00 0.00 0.00 82 1018.5
20260510014304 49 7 4.3 10.4 0.00 0.00 0.00 82 1018.5
20260510013804 49 49 4.3 12.2 0.00 0.00 0.00 83 1018.5
20260510013305 49 42 5.2 12.2 0.00 0.00 0.00 83 1018.5
20260510012306 49 35 2.6 8.7 0.00 0.00 0.00 82 1018.5
20260510011804 50 51 4.3 7.8 0.00 0.00 0.00 82 1018.6
20260510011305 50 4 3.5 10.4 0.00 0.00 0.00 82 1018.5
20260510010805 50 49 3.5 10.4 0.00 0.00 0.00 82 1018.6
20260510010305 50 20 4.3 8.7 0.00 0.00 0.00 82 1018.6
20260510005805 50 32 2.6 8.7 0.00 0.00 0.00 82 1018.7
20260510005306 50 32 2.6 11.3 0.00 0.00 0.00 82 1018.7
20260510004805 51 28 2.6 7.0 0.00 0.00 0.00 82 1018.7
20260510004304 51 37 3.5 7.8 0.00 0.00 0.00 82 1018.7
20260510003305 51 59 2.6 8.7 0.00 0.00 0.00 82 1018.8
20260510001805 51 22 4.3 11.3 0.00 0.00 0.00 81 1018.6
20260510000805 52 23 3.5 7.8 0.00 0.00 0.00 81 1018.6
20260509235804 52 17 2.6 12.2 0.00 0.00 0.00 80 1018.3
20260509235307 52 45 4.3 10.4 0.00 0.00 0.00 80 1018.2
20260509234804 52 34 4.3 8.7 0.00 0.00 0.00 80 1018.2
20260509234304 52 21 4.3 12.2 0.00 0.00 0.00 80 1018.2
20260509233804 52 24 4.3 7.8 0.00 0.00 0.00 79 1018.0
20260509233304 52 13 4.3 8.7 0.00 0.00 0.00 79 1018.0
20260509232805 53 22 4.3 11.3 0.00 0.00 0.00 79 1018.1
20260509232306 53 21 4.3 7.8 0.00 0.00 0.00 79 1018.2
20260509231805 53 45 5.2 13.0 0.00 0.00 0.00 79 1018.1
20260509231304 53 16 4.3 11.3 0.00 0.00 0.00 79 1018.1
20260509230816 53 22 1.7 10.4 0.00 0.00 0.00 79 1018.0
20260509230305 53 44 3.5 12.2 0.00 0.00 0.00 79 1017.9
20260509225805 54 28 6.1 11.3 0.00 0.00 0.00 79 1018.0
20260509225306 54 51 5.2 13.9 0.00 0.00 0.00 79 1018.0
20260509224804 54 42 5.2 12.2 0.00 0.00 0.00 79 1018.0
20260509224304 54 39 2.6 7.8 0.00 0.00 0.00 79 1017.9
20260509223804 54 43 2.6 10.4 0.00 0.00 0.00 78 1017.9
20260509223305 55 24 4.3 8.7 0.00 0.00 0.00 78 1018.0
20260509222804 55 28 3.5 10.4 0.00 0.00 0.00 78 1017.9
20260509222307 55 37 4.3 11.3 0.00 0.00 0.00 78 1018.0
20260509221804 55 29 4.3 13.0 0.00 0.00 0.00 77 1018.0
20260509221304 55 34 4.3 10.4 0.00 0.00 0.00 77 1018.0
20260509220804 55 37 4.3 11.3 0.00 0.00 0.00 77 1018.0
20260509220305 56 34 5.2 11.3 0.00 0.00 0.00 76 1017.9
20260509215804 56 354 4.3 10.4 0.00 0.00 0.00 76 1017.9
20260509215306 56 28 5.2 11.3 0.00 0.00 0.00 76 1017.9
20260509214804 56 36 5.2 11.3 0.00 0.00 0.00 76 1017.9
20260509214305 57 20 5.2 11.3 0.00 0.00 0.00 75 1017.9
20260509213805 57 33 4.3 13.0 0.00 0.00 0.00 75 1017.9
20260509213304 57 18 5.2 11.3 0.00 0.00 0.00 74 1017.8
20260509212306 57 14 3.5 10.4 0.00 0.00 0.00 73 1017.7
20260509211805 58 26 5.2 12.2 0.00 0.00 0.00 73 1017.6
20260509210804 58 9 4.3 13.0 0.00 0.00 0.00 72 1017.4
20260509210304 58 48 4.3 17.4 0.00 0.00 0.00 72 1017.4
20260509205805 58 10 5.2 14.8 0.00 0.00 0.00 72 1017.4
20260509205307 59 13 5.2 13.0 0.00 0.00 0.00 72 1017.3
20260509204304 59 24 2.6 8.7 0.00 0.00 0.00 72 1017.3
20260509203805 59 359 4.3 7.8 0.00 0.00 0.00 71 1017.3
20260509203305 59 345 5.2 12.2 0.00 0.00 0.00 71 1017.2
20260509202805 59 312 3.5 7.8 0.00 0.00 0.00 70 1017.2
20260509202306 60 348 2.6 11.3 0.00 0.00 0.00 70 1017.3
20260509200805 61 7 3.5 7.8 0.00 0.00 0.00 68 1017.1
20260509195804 61 337 3.5 8.7 0.00 0.00 0.00 65 1017.0
20260509195306 62 11 4.3 11.3 0.00 0.00 0.00 62 1017.0
20260509194804 62 10 3.5 7.8 0.00 0.00 0.00 56 1016.9
20260509194305 62 358 1.7 5.2 0.00 0.00 0.00 55 1016.8
20260509193805 62 354 1.7 5.2 0.00 0.00 0.00 55 1016.7
20260509192804 63 8 1.7 5.2 0.00 0.00 0.00 54 1016.6
20260509192306 63 4 1.7 6.1 0.00 0.00 0.00 53 1016.6
20260509191805 63 35 1.7 4.3 0.00 0.00 0.00 53 1016.7
20260509191304 64 44 1.7 5.2 0.00 0.00 0.00 52 1016.7
20260509190804 64 348 0.9 6.1 0.00 0.00 0.00 51 1016.7